| time (UTC) | temp F | wind direction | speed knots | gust knots | rain 1hr in | rain 24hr in | rain mn in | humidity % | barometer mb |
| 20260505051504 | 65 | 227 | 0.0 | 0.0 | 0.00 | 0.00 | 0.00 | 68 | 1004.2 |
| 20260505041504 | 63 | 266 | 0.0 | 0.0 | 0.00 | 0.00 | 0.00 | 75 | 1004.7 |
| 20260505040004 | 63 | 266 | 0.0 | 0.0 | 0.00 | 0.00 | 0.00 | 75 | 1004.7 |
| 20260505034504 | 63 | 266 | 0.0 | 0.0 | 0.00 | 0.00 | 0.00 | 75 | 1004.8 |
| 20260505033004 | 63 | 266 | 0.0 | 0.0 | 0.00 | 0.00 | 0.00 | 74 | 1004.9 |
| 20260505031504 | 63 | 266 | 0.0 | 0.0 | 0.00 | 0.00 | 0.00 | 75 | 1004.8 |
| 20260505030004 | 63 | 254 | 0.0 | 0.0 | 0.00 | 0.00 | 0.00 | 73 | 1004.8 |
| 20260505024504 | 64 | 254 | 0.0 | 0.0 | 0.00 | 0.00 | 0.00 | 72 | 1004.7 |
| 20260505021504 | 65 | 254 | 0.0 | 0.0 | 0.00 | 0.00 | 0.00 | 71 | 1004.2 |
| 20260505020004 | 65 | 254 | 0.0 | 0.0 | 0.00 | 0.00 | 0.00 | 70 | 1004.0 |
| 20260505014504 | 66 | 254 | 0.0 | 0.0 | 0.00 | 0.00 | 0.00 | 68 | 1003.9 |
| 20260505013004 | 66 | 254 | 0.0 | 0.0 | 0.00 | 0.00 | 0.00 | 66 | 1003.8 |
| 20260505011504 | 67 | 254 | 0.0 | 0.0 | 0.00 | 0.00 | 0.00 | 65 | 1003.7 |
| 20260505003004 | 71 | 247 | 0.0 | 1.7 | 0.00 | 0.00 | 0.00 | 56 | 1003.6 |
| 20260505001504 | 72 | 236 | 0.9 | 2.6 | 0.00 | 0.00 | 0.00 | 55 | 1003.6 |
| 20260505000004 | 73 | 245 | 0.0 | 4.3 | 0.00 | 0.00 | 0.00 | 53 | 1003.7 |
| 20260504233003 | 71 | 206 | 0.0 | 0.9 | 0.00 | 0.00 | 0.00 | 68 | 1004.0 |
| 20260504231504 | 71 | 230 | 0.0 | 0.0 | 0.00 | 0.00 | 0.00 | 64 | 1004.0 |
| 20260504230003 | 71 | 230 | 0.0 | 0.0 | 0.00 | 0.00 | 0.00 | 62 | 1004.3 |
| 20260504224504 | 72 | 230 | 0.0 | 2.6 | 0.00 | 0.00 | 0.00 | 61 | 1004.6 |
| 20260504223024 | 73 | 253 | 0.0 | 0.0 | 0.00 | 0.00 | 0.00 | 59 | 1004.6 |
| 20260504220004 | 72 | 238 | 0.0 | 2.6 | 0.00 | 0.00 | 0.00 | 59 | 1004.6 |
| 20260504214504 | 73 | 279 | 0.0 | 2.6 | 0.00 | 0.00 | 0.00 | 59 | 1005.1 |
| 20260504213004 | 73 | 247 | 0.9 | 4.3 | 0.00 | 0.00 | 0.00 | 59 | 1005.2 |
| 20260504211504 | 72 | 229 | 0.9 | 2.6 | 0.00 | 0.00 | 0.00 | 60 | 1005.4 |
| 20260504210004 | 71 | 244 | 0.0 | 2.6 | 0.00 | 0.00 | 0.00 | 62 | 1005.6 |
| 20260504204504 | 70 | 236 | 0.0 | 2.6 | 0.00 | 0.00 | 0.00 | 65 | 1005.8 |
| 20260504203004 | 70 | 59 | 0.0 | 1.7 | 0.00 | 0.00 | 0.00 | 70 | 1006.3 |
| 20260504201503 | 67 | 25 | 0.0 | 0.0 | 0.00 | 0.00 | 0.00 | 76 | 1006.4 |
| 20260504200004 | 65 | 26 | 0.0 | 0.0 | 0.00 | 0.00 | 0.00 | 79 | 1006.3 |
| 20260504194504 | 65 | 26 | 0.0 | 0.9 | 0.00 | 0.00 | 0.00 | 79 | 1006.6 |
| 20260504193004 | 65 | 310 | 0.0 | 0.0 | 0.00 | 0.00 | 0.00 | 76 | 1007.1 |
| 20260504191503 | 67 | 207 | 0.0 | 7.0 | 0.00 | 0.00 | 0.00 | 70 | 1006.9 |
| 20260504184504 | 69 | 266 | 0.0 | 6.1 | 0.00 | 0.00 | 0.00 | 65 | 1007.3 |
| 20260504180004 | 70 | 199 | 0.9 | 4.3 | 0.00 | 0.00 | 0.00 | 63 | 1006.4 |
| 20260504174503 | 69 | 245 | 0.9 | 2.6 | 0.00 | 0.00 | 0.00 | 66 | 1006.6 |
| 20260504173004 | 69 | 263 | 0.0 | 2.6 | 0.00 | 0.00 | 0.00 | 64 | 1006.7 |
| 20260504171504 | 68 | 258 | 0.0 | 1.7 | 0.00 | 0.00 | 0.00 | 68 | 1006.9 |
| 20260504081504 | 51 | 244 | 0.0 | 0.0 | 0.00 | 0.00 | 0.00 | 72 | 1009.6 |